TimeCST,TemperatureF,Dew PointF,Humidity,Sea Level PressureIn,VisibilityMPH,Wind Direction,Wind SpeedMPH,Gust SpeedMPH,PrecipitationIn,Events,Conditions,WindDirDegrees,DateUTC
12:53 AM,5.0,-0.0,80,30.16,10.0,NW,8.1,-,N/A,,Clear,310,2013-01-06 06:53:00
1:22 AM,5.0,1.4,85,30.07,10.0,NW,8.1,-,N/A,,Scattered Clouds,310,2013-01-06 07:22:00
1:31 AM,6.8,1.4,79,30.07,10.0,NW,9.2,-,N/A,,Mostly Cloudy,320,2013-01-06 07:31:00
1:53 AM,8.1,5.0,87,30.17,10.0,NW,8.1,-,N/A,,Overcast,320,2013-01-06 07:53:00
2:53 AM,10.0,7.0,87,30.19,10.0,NNW,5.8,-,N/A,,Overcast,330,2013-01-06 08:53:00
3:53 AM,10.9,7.0,84,30.19,10.0,West,6.9,-,N/A,,Overcast,280,2013-01-06 09:53:00
4:16 AM,12.2,8.6,85,30.08,10.0,West,9.2,-,N/A,,Overcast,280,2013-01-06 10:16:00
4:53 AM,12.9,10.9,92,30.19,10.0,NNW,4.6,-,N/A,,Overcast,330,2013-01-06 10:53:00
5:41 AM,12.2,10.4,92,30.12,5.0,NNW,5.8,-,N/A,,Overcast,340,2013-01-06 11:41:00
5:53 AM,14.0,10.9,88,30.22,4.0,NW,9.2,-,N/A,,Overcast,310,2013-01-06 11:53:00
6:27 AM,14.0,10.4,86,30.13,3.0,NW,8.1,-,N/A,,Overcast,310,2013-01-06 12:27:00
6:53 AM,14.0,12.0,92,30.23,6.0,NNW,5.8,-,N/A,,Overcast,330,2013-01-06 12:53:00
7:53 AM,14.0,10.9,88,30.24,3.0,North,4.6,-,N/A,,Overcast,10,2013-01-06 13:53:00
8:01 AM,14.0,12.2,93,30.14,1.8,Calm,Calm,-,N/A,,Overcast,0,2013-01-06 14:01:00
8:13 AM,12.2,10.4,92,30.14,1.2,Calm,Calm,-,N/A,,Overcast,0,2013-01-06 14:13:00
8:32 AM,14.0,10.4,86,30.14,1.2,Calm,Calm,-,N/A,,Overcast,0,2013-01-06 14:32:00
8:43 AM,14.0,10.4,86,30.14,0.5,Calm,Calm,-,N/A,Fog,Light Freezing Fog,0,2013-01-06 14:43:00
8:53 AM,14.0,10.9,88,30.25,0.5,Calm,Calm,-,N/A,Fog,Light Freezing Fog,0,2013-01-06 14:53:00
9:03 AM,12.2,10.4,92,30.15,0.8,Calm,Calm,-,N/A,,Overcast,0,2013-01-06 15:03:00
9:10 AM,14.0,10.4,86,30.16,1.0,NW,3.5,-,N/A,,Overcast,310,2013-01-06 15:10:00
9:29 AM,14.0,10.4,86,30.16,0.8,Calm,Calm,-,N/A,,Overcast,0,2013-01-06 15:29:00
9:40 AM,14.0,12.2,93,30.15,1.0,Calm,Calm,-,0.00,Snow,Light Snow,0,2013-01-06 15:40:00
9:51 AM,14.0,12.2,93,30.15,2.0,Calm,Calm,-,0.00,Snow,Light Snow,0,2013-01-06 15:51:00
9:53 AM,14.0,12.0,92,30.25,2.5,Calm,Calm,-,0.00,,Overcast,0,2013-01-06 15:53:00
10:48 AM,14.0,12.2,93,30.18,3.0,South,3.5,-,0.00,,Overcast,190,2013-01-06 16:48:00
10:53 AM,15.1,12.0,88,30.28,3.0,SW,5.8,-,0.00,,Overcast,220,2013-01-06 16:53:00
11:53 AM,15.1,12.9,91,30.26,5.0,SSW,5.8,-,N/A,,Overcast,200,2013-01-06 17:53:00
12:30 PM,15.8,12.2,86,30.13,5.0,SSW,9.2,-,N/A,,Overcast,200,2013-01-06 18:30:00
12:53 PM,15.1,10.9,84,30.24,4.0,South,8.1,-,N/A,,Overcast,190,2013-01-06 18:53:00
1:53 PM,15.1,10.9,84,30.20,5.0,South,6.9,-,N/A,,Overcast,170,2013-01-06 19:53:00
2:43 PM,15.8,10.4,79,30.10,7.0,South,8.1,-,N/A,,Scattered Clouds,180,2013-01-06 20:43:00
2:53 PM,15.1,10.0,80,30.19,6.0,South,10.4,-,N/A,,Haze,190,2013-01-06 20:53:00
3:53 PM,12.9,9.0,84,30.20,7.0,SSE,9.2,-,N/A,,Clear,160,2013-01-06 21:53:00
4:08 PM,12.2,10.4,92,30.09,5.0,SSE,6.9,-,N/A,,Scattered Clouds,150,2013-01-06 22:08:00
4:21 PM,12.2,8.6,85,30.09,4.0,SSE,8.1,-,N/A,,Mostly Cloudy,160,2013-01-06 22:21:00
4:53 PM,12.0,9.0,88,30.17,5.0,SSE,8.1,-,N/A,,Mostly Cloudy,150,2013-01-06 22:53:00
5:03 PM,10.4,8.6,92,30.07,5.0,SSE,9.2,-,N/A,,Scattered Clouds,160,2013-01-06 23:03:00
5:53 PM,10.0,6.1,84,30.15,8.0,SSE,10.4,-,N/A,,Clear,150,2013-01-06 23:53:00
6:53 PM,10.0,6.1,84,30.11,8.0,SSE,13.8,-,N/A,,Clear,160,2013-01-07 00:53:00
7:53 PM,12.0,7.0,80,30.05,7.0,SSE,15.0,-,N/A,,Clear,150,2013-01-07 01:53:00
8:53 PM,12.9,9.0,84,30.00,9.0,SE,13.8,-,N/A,,Clear,140,2013-01-07 02:53:00
9:53 PM,14.0,10.0,84,29.96,9.0,SSE,15.0,-,N/A,,Clear,150,2013-01-07 03:53:00
10:53 PM,17.1,12.0,81,29.92,10.0,South,13.8,-,N/A,,Clear,170,2013-01-07 04:53:00
11:53 PM,19.9,14.0,78,29.90,10.0,South,17.3,-,N/A,,Clear,180,2013-01-07 05:53:00